Home > Weather > Cayenne > Past weeks

Flag for French Guiana Past Weather in Cayenne, French Guiana — Yesterday and Last 2 Weeks

Now
84 °F

Sunny.


Feels Like: 91 °F
Forecast: N/A
Wind: 9 mph from East

Location: Cayenne / Rochambeau

Current Time: Jul 26, 2016 at 7:07:59 PM

Latest Report: Jul 26, 2016 at 6:30 PM


Visibility: 10 mi

Pressure: 29.86 "Hg

Humidity: 70%

Dew Point: 73 °F

Location of CayenneLocation

Past Weather in Cayenne — Graph

°F

Cayenne Temperature Yesterday

Maximum temperature yesterday: 91 °F (at 2:00 PM)
Minimum temperature yesterday: 72 °F (at 3:30 AM)
Average temperature yesterday: 79 °F

High & Low Weather Summary for the Past Weeks

 TemperatureHumidityPressure
High91 °F (Jul 25, 2:00 PM)100% (Jul 11, 11:00 PM)29.98 "Hg (Jul 11, 11:00 PM)
Low72 °F (Jul 12, 5:30 AM)55% (Jul 25, 12:30 PM)29.80 "Hg (Jul 15, 2:30 PM)
Average80 °F86%29.90 "Hg
* Reported Jul 11 6:00 PM — Jul 26 6:00 PM, Cayenne, Weather by CustomWeather, © 2016

Note: Actual official high and low records may vary slightly from our data, if they occured in-between our weather recording intervals... More about our weather records

Advertising

Cayenne Weather History for the Previous 24 Hours

Scroll right to see more
 ConditionsComfort  
Time TempWeatherWind HumidityBarometerVisibility
6:00 PM
Tue, Jul 26
84 °FSunny.9 mph70%29.86 "Hg10 mi
5:30 PM86 °FScattered clouds.10 mph66%29.83 "HgN/A
5:00 PM88 °FPassing clouds.8 mph62%29.83 "HgN/A
4:30 PM88 °FWarm.10 mph66%29.83 "HgN/A
4:00 PM88 °FWarm.10 mph62%29.83 "HgN/A
3:30 PM88 °FWarm.12 mph62%29.83 "HgN/A
3:00 PM86 °FScattered clouds.10 mph66%29.86 "HgN/A
2:30 PM88 °FPassing clouds.8 mph62%29.86 "HgN/A
2:00 PM88 °FScattered clouds.7 mph62%29.86 "HgN/A
1:30 PM86 °FPartly sunny.5 mph70%29.89 "HgN/A
1:00 PM90 °FBroken clouds.8 mph59%29.92 "HgN/A
12:30 PM90 °FPassing clouds.12 mph63%29.92 "HgN/A
12:00 PM90 °FBroken clouds.9 mph63%29.92 "HgN/A
11:30 AM88 °FScattered clouds.10 mph66%29.92 "HgN/A
11:00 AM86 °FPartly sunny.8 mph70%29.95 "HgN/A
10:30 AM88 °FPartly sunny.8 mph66%29.95 "HgN/A
10:00 AM86 °FPartly sunny.7 mph70%29.92 "HgN/A
9:30 AM86 °FScattered clouds.5 mph75%29.95 "HgN/A
9:00 AM82 °FSunny.2 mph79%29.95 "Hg10 mi
8:30 AM79 °FPartly sunny.No wind89%29.95 "HgN/A
8:00 AM77 °FPartly sunny.No wind94%29.92 "HgN/A
7:30 AM75 °FSunny.1 mph94%29.92 "Hg10 mi
7:00 AM73 °FSunny.1 mph100%29.92 "Hg10 mi
6:30 AM73 °FSunny.1 mph100%29.92 "Hg10 mi
6:00 AM73 °FClear.2 mph100%29.89 "Hg10 mi
5:30 AM73 °FClear.2 mph100%29.89 "Hg10 mi
5:00 AM73 °FClear.No wind100%29.89 "Hg10 mi
4:30 AM73 °FClear.No wind100%29.89 "Hg10 mi
4:00 AM73 °FClear.No wind100%29.89 "Hg10 mi
3:30 AM73 °FClear.1 mph100%29.89 "Hg10 mi
3:00 AM73 °FClear.No wind100%29.89 "Hg10 mi
2:30 AM73 °FOvercast.No wind100%29.89 "HgN/A
2:00 AM73 °FClear.No wind100%29.92 "Hg10 mi
1:30 AM73 °FClear.2 mph100%29.92 "Hg10 mi
1:00 AM73 °FClear.No wind100%29.92 "Hg10 mi
12:30 AM73 °FClear.No wind100%29.92 "Hg10 mi
12:00 AM73 °FMild.No wind100%29.92 "HgN/A
11:30 PM
Mon, Jul 25
75 °FClear.2 mph94%29.92 "Hg10 mi
11:00 PM75 °FClear.No wind94%29.92 "Hg10 mi
10:30 PM75 °FClear.No wind94%29.92 "Hg10 mi
10:00 PM75 °FClear.1 mph94%29.92 "Hg10 mi
9:30 PM75 °FClear.2 mph94%29.92 "Hg10 mi
9:00 PM75 °FClear.2 mph94%29.89 "Hg10 mi
8:30 PM75 °FClear.2 mph94%29.89 "Hg10 mi
8:00 PM75 °FClear.2 mph94%29.86 "Hg10 mi
7:30 PM75 °FClear.1 mph94%29.86 "Hg10 mi
7:00 PM77 °FPassing clouds.2 mph89%29.86 "HgN/A
Weather by CustomWeather, © 2016

See weather overviewHow to use our weather pages